Weather reports worldwide

Advertisment
Tiree, United Kingdom (3100): temperature & dewpoint: 28.05.2020 20:00:00 - 03.06.2020 20:00:00 (BST)Tiree, United Kingdom (3100): temperature -20cm & temperature -100cm: 28.05.2020 20:00:00 - 03.06.2020 20:00:00 (BST)Tiree, United Kingdom (3100): wind speed & gusts: 28.05.2020 20:00:00 - 03.06.2020 20:00:00 (BST)Tiree, United Kingdom (3100): wind direction: 28.05.2020 20:00:00 - 03.06.2020 20:00:00 (BST)Tiree, United Kingdom (3100): reduced air pressure: 28.05.2020 20:00:00 - 03.06.2020 20:00:00 (BST)Tiree, United Kingdom (3100): visibility: 28.05.2020 20:00:00 - 03.06.2020 20:00:00 (BST)Tiree, United Kingdom (3100): sunshine duration: 28.05.2020 20:00:00 - 03.06.2020 20:00:00 (BST)Tiree, United Kingdom (3100): precipitation: 28.05.2020 20:00:00 - 03.06.2020 20:00:00 (BST)
Date & Time tt [°C] td [°C] tt -20cm [°C] tt -100cm [°C] ff [km/h] ff [kn] fx [km/h] fx [kn] dd ppp [hPa] vv [km] sd [min] rr [mm]
03.06.2020 20:00:00 10,7 6,9 - - 26 14 - - N 1016,6 40 0 0,0
03.06.2020 19:00:00 11,0 6,7 - - 29 16 - - N 1016,9 35 0 0,0
03.06.2020 18:00:00 11,4 6,3 - - 34 18 - - N 1017,4 30 30 0,0
03.06.2020 17:00:00 12,3 7,5 - - 35 19 46 25 N 1018,0 40 60 0,0
03.06.2020 16:00:00 12,4 6,4 - - 35 19 46 25 N 1018,3 28 60 0,0
03.06.2020 15:00:00 12,5 6,3 - - 39 21 46 25 N 1018,6 35 60 0,0
03.06.2020 14:00:00 13,1 7,7 - - 35 19 46 25 N 1018,9 27 60 0,0
03.06.2020 13:00:00 12,9 7,7 - - 34 18 46 25 N 1019,4 30 60 0,0
03.06.2020 12:00:00 12,6 6,6 - - 35 19 48 26 N 1019,6 27 24 0,0
03.06.2020 11:00:00 11,4 7,1 - - 37 20 48 26 NNE 1019,9 28 12 0,0
03.06.2020 10:00:00 12,1 7,4 14,0 11,9 35 19 46 25 N 1020,0 50 60 0,0
03.06.2020 09:00:00 11,3 6,7 - - 37 20 54 29 NNE 1019,8 40 42 0,0
03.06.2020 08:00:00 10,7 6,5 - - 42 23 54 29 NNE 1020,0 30 54 0,0
03.06.2020 07:00:00 10,4 5,5 - - 34 18 46 25 NNE 1019,8 30 42 0,0
03.06.2020 06:00:00 9,6 6,0 - - 37 20 48 26 NNE 1019,7 30 0 0,0
03.06.2020 05:00:00 9,3 6,6 - - 34 18 46 25 NE 1019,5 26 0 0,0
03.06.2020 04:00:00 9,6 6,8 - - 39 21 52 28 NNE 1019,4 27 0 0,0
03.06.2020 03:00:00 9,6 6,8 - - 41 22 54 29 NNE 1019,3 26 0 0,0
03.06.2020 02:00:00 9,9 7,7 - - 39 21 55 30 NNE 1019,0 19 0 0,0
03.06.2020 01:00:00 10,2 8,3 - - 42 23 54 29 NNE 1019,0 16 - 0,0
03.06.2020 00:00:00 10,2 8,3 - - 39 21 55 30 NNE 1018,9 15 0 0,0
02.06.2020 23:00:00 10,4 8,3 - - 35 19 50 27 NNE 1018,9 20 0 0,0
02.06.2020 22:00:00 11,3 9,7 - - 29 16 - - NNE 1019,0 20 0 0,0
02.06.2020 21:00:00 11,8 10,9 - - 24 13 - - NNE 1018,7 15 0 0,0
02.06.2020 20:00:00 12,1 11,5 - - 16 9 - - N 1018,7 8 0 0,0
02.06.2020 19:00:00 12,2 11,6 - - 16 9 - - N 1019,1 4,8 0 2,6
02.06.2020 18:00:00 12,3 11,4 - - 16 9 - - N 1019,5 3,1 0 0,8
02.06.2020 17:00:00 12,7 11,8 - - 16 9 - - N 1019,6 6 0 0,0
02.06.2020 16:00:00 13,3 12,2 - - 16 9 - - N 1019,9 3,0 0 0,0
02.06.2020 15:00:00 14,3 12,0 - - 11 6 - - N 1020,2 12 0 0,0
02.06.2020 14:00:00 15,3 11,4 - - 9 5 - - N 1020,5 19 0 0,0
02.06.2020 13:00:00 15,2 12,0 - - 15 8 - - N 1021,0 19 6 0,0
02.06.2020 12:00:00 17,2 12,7 - - 5 3 - - WNW 1020,9 30 18 0,0
02.06.2020 11:00:00 14,9 12,9 - - 8 4 - - NNW 1021,5 12 0 0,0
02.06.2020 10:00:00 15,0 13,7 - - 11 6 - - NW 1021,9 9 6 -
02.06.2020 09:00:00 13,9 12,1 - - 11 6 - - W 1022,0 10 0 -
02.06.2020 08:00:00 13,8 11,3 - - 9 5 - - WSW 1022,2 16 0 0,0
02.06.2020 07:00:00 12,6 11,0 - - 8 4 - - W 1022,3 17 0 0,0
02.06.2020 06:00:00 11,7 10,3 - - 2 1 - - NNW 1022,2 8 0 0,0
02.06.2020 05:00:00 11,2 10,1 - - 4 2 - - W 1022,8 12 0 0,0
02.06.2020 04:00:00 10,9 9,9 - - 2 1 - - NE 1023,1 4,8 0 0,0
02.06.2020 03:00:00 10,4 9,2 - - 0 0 - - N 1023,6 6 0 0,0
02.06.2020 02:00:00 10,0 8,5 - - 4 2 - - NNW 1023,9 9 0 0,0
02.06.2020 01:00:00 10,4 8,9 - - 9 5 54 29 NW 1024,4 12 - 0,0
02.06.2020 00:00:00 11,3 8,9 - - 4 2 - - NE 1024,6 17 0 0,0
01.06.2020 23:00:00 11,1 8,5 - - 5 3 - - N 1024,9 18 0 0,0
01.06.2020 22:00:00 13,3 9,6 - - 0 0 - - N 1025,1 22 0 0,0
01.06.2020 21:00:00 15,5 10,1 - - 4 2 - - W 1024,8 25 24 0,0
01.06.2020 20:00:00 16,8 10,1 - - 8 4 - - W 1024,8 27 60 0,0
01.06.2020 19:00:00 17,1 10,2 - - 15 8 - - WSW 1025,1 21 60 0,0
01.06.2020 18:00:00 18,2 10,3 - - 16 9 - - WSW 1025,2 29 60 0,0
01.06.2020 17:00:00 18,8 11,0 - - 18 10 - - SSW 1025,3 60 60 0,0
01.06.2020 16:00:00 18,3 10,8 - - 18 10 - - SSW 1025,6 35 60 0,0
01.06.2020 15:00:00 17,9 11,2 - - 16 9 - - S 1025,7 23 60 0,0
01.06.2020 14:00:00 16,7 10,3 - - 16 9 - - S 1025,9 29 60 0,0
01.06.2020 13:00:00 16,9 10,5 - - 18 10 - - S 1026,2 29 60 0,0
01.06.2020 12:00:00 16,3 10,9 - - 18 10 - - SSE 1026,1 45 60 0,0
01.06.2020 11:00:00 15,7 10,3 - - 21 11 - - SSE 1026,3 35 60 0,0
01.06.2020 10:00:00 15,5 10,3 13,7 11,7 22 12 - - SSE 1026,1 45 60 0,0
01.06.2020 09:00:00 14,8 9,9 - - 21 11 - - SSE 1025,8 29 60 0,0
01.06.2020 08:00:00 14,5 10,4 - - 16 9 - - SSE 1025,7 24 60 0,0
01.06.2020 07:00:00 13,3 9,7 - - 18 10 - - SSE 1025,4 35 24 0,0
01.06.2020 06:00:00 11,6 9,7 - - 11 6 - - S 1025,4 30 0 0,0
01.06.2020 05:00:00 11,7 9,2 - - 15 8 - - SE 1025,3 30 0 0,0
01.06.2020 04:00:00 9,3 7,1 - - 16 9 - - ESE 1025,1 26 0 0,0
01.06.2020 03:00:00 9,9 8,0 - - 4 2 - - SE 1025,4 30 0 0,0
01.06.2020 02:00:00 10,8 8,4 - - 8 4 - - E 1025,4 30 0 0,0
01.06.2020 01:00:00 11,2 7,6 - - 11 6 - - ESE 1025,3 35 - 0,0
01.06.2020 00:00:00 12,2 8,7 - - 11 6 - - SE 1025,2 20 0 0,0
31.05.2020 23:00:00 10,5 7,3 - - 8 4 - - S 1025,0 27 0 0,0
31.05.2020 22:00:00 13,2 7,7 - - 5 3 - - S 1024,7 29 18 0,0
31.05.2020 21:00:00 15,8 7,9 - - 8 4 - - SSW 1024,3 40 60 0,0
31.05.2020 20:00:00 17,4 9,4 - - 9 5 - - SSW 1024,3 30 60 0,0
31.05.2020 19:00:00 17,1 9,3 - - 13 7 - - S 1024,1 35 60 0,0
31.05.2020 18:00:00 16,4 9,8 - - 13 7 - - S 1024,2 35 60 0,0
31.05.2020 17:00:00 16,3 9,6 - - 18 10 - - S 1024,2 30 60 0,0
31.05.2020 16:00:00 17,8 10,7 - - 24 13 - - SSE 1024,4 10 60 0,0
31.05.2020 15:00:00 17,1 9,6 - - 24 13 - - SSE 1024,7 10 60 0,0
31.05.2020 14:00:00 17,2 10,1 - - 26 14 - - SE 1024,5 35 60 0,0
31.05.2020 13:00:00 16,2 9,6 - - 28 15 - - SE 1024,5 23 60 0,0
31.05.2020 12:00:00 16,0 9,7 - - 26 14 - - SSE 1024,5 22 60 0,0
31.05.2020 11:00:00 15,6 9,5 - - 28 15 - - SSE 1024,1 20 60 0,0
31.05.2020 10:00:00 15,2 9,5 13,5 11,7 28 15 - - SE 1024,0 19 60 0,0
31.05.2020 09:00:00 14,4 9,0 - - 28 15 - - SSE 1023,6 20 60 0,0
31.05.2020 08:00:00 13,9 8,4 - - 34 18 - - SE 1023,4 30 60 0,0
31.05.2020 07:00:00 13,2 8,5 - - 26 14 - - SE 1023,1 21 54 0,0
31.05.2020 06:00:00 12,9 8,3 - - 28 15 - - SE 1022,9 25 6 0,0
31.05.2020 05:00:00 12,5 8,1 - - 28 15 - - SE 1022,7 28 0 0,0
31.05.2020 04:00:00 11,8 7,9 - - 18 10 - - ESE 1022,6 27 0 0,0
31.05.2020 03:00:00 12,2 8,5 - - 21 11 - - ESE 1022,7 29 0 0,0
31.05.2020 02:00:00 12,7 8,7 - - 22 12 - - ESE 1022,6 35 0 0,0
31.05.2020 01:00:00 12,9 8,8 - - 22 12 - - ESE 1022,8 50 - 0,0
31.05.2020 00:00:00 12,0 7,8 - - 16 9 - - ESE 1022,6 50 0 0,0
30.05.2020 23:00:00 13,1 8,1 - - 18 10 - - ESE 1022,5 50 0 0,0
30.05.2020 22:00:00 12,8 8,8 - - 18 10 - - SE 1022,4 40 30 0,0
30.05.2020 21:00:00 14,0 8,4 - - 16 9 - - SSE 1022,1 35 18 0,0
30.05.2020 20:00:00 14,4 8,9 - - 15 8 - - S 1022,0 30 30 0,0
30.05.2020 19:00:00 15,9 9,0 - - 24 13 - - S 1022,0 45 60 0,0
30.05.2020 18:00:00 16,1 9,8 - - 24 13 - - S 1022,1 30 60 0,0
30.05.2020 17:00:00 17,4 11,1 - - 22 12 - - S 1022,3 35 60 0,0
30.05.2020 16:00:00 17,3 10,4 - - 21 11 - - S 1022,7 45 60 0,0
30.05.2020 15:00:00 16,5 10,7 - - 16 9 - - SSE 1023,0 40 60 0,0
30.05.2020 14:00:00 15,9 10,3 - - 16 9 - - S 1023,4 45 60 0,0
30.05.2020 13:00:00 15,8 10,2 - - 21 11 - - S 1023,5 25 60 0,0
30.05.2020 12:00:00 15,2 10,1 - - 16 9 - - SSE 1023,5 28 60 0,0
30.05.2020 11:00:00 15,4 10,2 - - 22 12 - - SSE 1023,5 19 60 0,0
30.05.2020 10:00:00 14,9 9,9 13,2 11,5 22 12 - - SSE 1023,4 25 60 0,0
30.05.2020 09:00:00 14,5 10,0 - - 22 12 - - SE 1023,2 15 42 0,0
30.05.2020 08:00:00 13,8 10,0 - - 18 10 - - SSE 1023,3 18 54 0,0
30.05.2020 07:00:00 13,2 9,1 - - 21 11 - - SSE 1022,9 22 42 0,0
30.05.2020 06:00:00 11,6 8,8 - - 15 8 - - S 1022,9 20 0 0,0
30.05.2020 05:00:00 11,4 7,8 - - 9 5 - - S 1022,6 28 0 0,0
30.05.2020 04:00:00 13,0 7,7 - - 24 13 - - SSE 1022,5 26 0 0,0
30.05.2020 03:00:00 14,2 7,2 - - 26 14 - - SSE 1022,5 27 0 0,0
30.05.2020 02:00:00 14,3 7,2 - - 29 16 - - SSE 1022,3 25 0 0,0
30.05.2020 01:00:00 14,6 7,5 - - 26 14 - - SSE 1022,5 26 - 0,0
30.05.2020 00:00:00 13,2 8,3 - - 24 13 - - SSE 1022,5 19 0 0,0
29.05.2020 23:00:00 13,0 8,5 - - 28 15 - - SSE 1022,3 17 0 0,0
29.05.2020 22:00:00 13,6 8,1 - - 24 13 - - SSE 1022,2 17 6 0,0
29.05.2020 21:00:00 14,3 8,4 - - 31 17 - - SSE 1022,1 17 6 0,0
29.05.2020 20:00:00 14,6 8,2 - - 31 17 46 25 SSE 1022,3 17 0 0,0
29.05.2020 19:00:00 15,3 8,0 - - 35 19 - - SE 1022,3 15 24 0,0
29.05.2020 18:00:00 16,8 8,3 - - 37 20 46 25 SSE 1022,8 17 36 0,0
29.05.2020 17:00:00 16,5 8,8 - - 37 20 55 30 SSE 1023,0 19 12 0,0
29.05.2020 16:00:00 16,3 8,7 - - 39 21 50 27 SSE 1023,1 15 24 0,0
29.05.2020 15:00:00 16,3 9,8 - - 29 16 50 27 SSE 1023,6 18 24 0,0
29.05.2020 14:00:00 16,3 10,7 - - 31 17 - - SSE 1023,8 18 54 0,0
29.05.2020 13:00:00 16,6 11,2 - - 31 17 - - SSE 1024,2 21 60 0,0
29.05.2020 12:00:00 16,0 11,7 - - 28 15 - - SSE 1025,1 27 60 0,0
29.05.2020 11:00:00 15,1 10,8 - - 26 14 - - SSE 1025,4 22 60 0,0
29.05.2020 10:00:00 15,3 10,8 13,0 11,4 15 8 - - S 1025,6 23 60 0,0
29.05.2020 09:00:00 15,3 10,7 - - 26 14 - - SSE 1025,6 24 60 0,0
29.05.2020 08:00:00 14,3 10,3 - - 24 13 - - SSE 1025,9 19 48 0,0
29.05.2020 07:00:00 14,0 10,1 - - 26 14 - - SSE 1025,8 24 24 0,0
29.05.2020 06:00:00 13,1 9,7 - - 26 14 - - SSE 1026,0 18 0 0,0
29.05.2020 05:00:00 13,1 9,7 - - 22 12 - - SSE 1026,2 21 0 0,0
29.05.2020 04:00:00 12,9 9,7 - - 22 12 - - SSE 1026,4 20 0 0,0
29.05.2020 03:00:00 12,8 9,7 - - 21 11 - - SSE 1026,7 21 0 0,0
29.05.2020 02:00:00 12,7 9,9 - - 21 11 - - SSE 1026,9 20 0 0,0
29.05.2020 01:00:00 12,8 10,3 - - 21 11 - - SE 1027,1 22 - 0,0
29.05.2020 00:00:00 13,0 10,2 - - 16 9 - - SSE 1027,5 21 0 0,0
28.05.2020 23:00:00 14,0 10,7 - - 21 11 - - SE 1027,7 26 0 0,0
28.05.2020 22:00:00 13,9 10,6 - - 15 8 - - SE 1027,8 25 6 0,0
28.05.2020 21:00:00 15,2 11,0 - - 16 9 - - SE 1028,0 26 18 0,0
28.05.2020 20:00:00 16,9 11,5 - - 18 10 - - SE 1028,4 21 36 0,0

tt = temperature
td = dewpoint
tt -20cm = temperature -20cm
tt -100cm = temperature -100cm
ff = wind speed
fx = gusts
dd = wind direction
ppp = reduced air pressure
vv = visibility
sd = sunshine duration
rr = precipitation

Next stations